Somerville, NJ

11:10 AM EST on November 21, 2019 (GMT -0500)
Somerset

Weather History for KSMQ - September, 2019

Change the Weather History Date:

Saturday, September 21, 2019

  Actual Average Record
Temperature  
Mean Temperature 66 °F -  
Max Temperature 87 °F 74 °F 92 °F (1983)
Min Temperature 46 °F 52 °F 32 °F (1956)
Cooling Degree Days 1    
Growing Degree Days 16 (Base 50)    
Moisture  
Dew Point 51 °F    
Average Humidity 73    
Maximum Humidity 97    
Minimum Humidity 26    
Precipitation  
Precipitation 0.00 in - - ()
Sea Level Pressure  
Sea Level Pressure 30.19 in    
Wind  
Wind Speed 1 mph (NNW)    
Max Wind Speed 5 mph    
Max Gust Speed -    
Visibility 8 miles    
Events      
Averages and records for this station are not official NWS values.
T = Trace of Precipitation, MM = Missing Value Source: NWS Daily Summary

Daily Weather History Graph

Daily Weather History Graph

Search for Another Location

Airport or City:

Astronomy

Sep. 21, 2019 Rise Set
Actual Time 6:45 AM EDT 6:57 PM EDT
Civil Twilight 6:17 AM EDT 7:25 PM EDT
Nautical Twilight 5:45 AM EDT 7:57 PM EDT
Astronomical Twilight 5:12 AM EDT 8:29 PM EDT
Moon 11:31 PM EDT 1:50 PM EDT
Length of Visible Light 13h 07m
Length of Day
12h 12m
Waning Gibbous, 55% of the Moon is Illuminated
Sep 21
Waning Gibbous
Sep 21
Last Quarter
Sep 28
New
Oct 5
First Quarter
Oct 13
Full

Hourly Weather History & Observations

Time (EDT) Temp. Heat Index Dew Point Humidity Pressure Visibility Wind Dir Wind Speed Gust Speed Precip Events Conditions
12:53 AM 52.0 °F - 50.0 °F 93% 30.20 in 9.0 mi Calm Calm - N/A   Clear
1:53 AM 48.9 °F - 48.0 °F 97% 30.20 in 5.0 mi Calm Calm - N/A   Clear
2:53 AM 50.0 °F - 48.0 °F 93% 30.20 in 9.0 mi Calm Calm - N/A   Clear
3:15 AM 48.0 °F - 46.9 °F 96% 30.20 in 1.8 mi Calm Calm - N/A   Clear
3:23 AM 48.0 °F - 46.9 °F 96% 30.20 in 1.5 mi Calm Calm - N/A   Partly Cloudy
3:26 AM 48.0 °F - 46.0 °F 93% 30.20 in 3.0 mi Calm Calm - N/A   Clear
3:53 AM 48.0 °F - 46.9 °F 96% 30.20 in 9.0 mi Calm Calm - N/A   Clear
4:53 AM 48.0 °F - 46.9 °F 96% 30.20 in 10.0 mi Calm Calm - N/A   Clear
5:53 AM 46.9 °F - 45.0 °F 93% 30.21 in 9.0 mi Calm Calm - N/A   Clear
6:53 AM 46.9 °F - 45.0 °F 93% 30.22 in 8.0 mi Calm Calm - N/A   Clear
7:53 AM 51.1 °F - 48.0 °F 89% 30.22 in 9.0 mi Calm Calm - N/A   Clear
8:53 AM 59.0 °F - 54.0 °F 83% 30.23 in 10.0 mi Calm Calm - N/A   Clear
9:53 AM 68.0 °F - 57.0 °F 68% 30.23 in 10.0 mi Calm Calm - N/A   Clear
10:53 AM 75.0 °F - 55.9 °F 51% 30.22 in 10.0 mi North 3.5 mph - N/A   Clear
11:53 AM 79.0 °F - 57.0 °F 47% 30.21 in 10.0 mi Calm Calm - N/A   Clear
12:53 PM 82.9 °F 82.0 °F 55.0 °F 38% 30.19 in 10.0 mi Variable 3.5 mph - N/A   Clear
1:53 PM 84.0 °F 82.6 °F 54.0 °F 35% 30.17 in 10.0 mi Calm Calm - N/A   Clear
2:53 PM 86.0 °F - 52.0 °F 31% 30.16 in 10.0 mi Variable 4.6 mph - N/A   Clear
3:53 PM 84.9 °F - 46.0 °F 26% 30.14 in 10.0 mi WNW 4.6 mph - N/A   Clear
4:53 PM 86.0 °F - 48.0 °F 27% 30.14 in 10.0 mi Calm Calm - N/A   Clear
5:53 PM 84.0 °F - 51.1 °F 32% 30.14 in 10.0 mi North 3.5 mph - N/A   Clear
6:53 PM 71.1 °F - 57.0 °F 61% 30.14 in 10.0 mi Calm Calm - N/A   Clear
7:53 PM 64.9 °F - 59.0 °F 81% 30.15 in 10.0 mi Calm Calm - N/A   Clear
8:53 PM 61.0 °F - 57.9 °F 90% 30.16 in 10.0 mi Calm Calm - N/A   Clear
9:53 PM 60.1 °F - 57.0 °F 90% 30.17 in 10.0 mi Calm Calm - N/A   Clear
10:53 PM 57.9 °F - 55.9 °F 93% 30.18 in 10.0 mi NW 3.5 mph - N/A   Clear
11:53 PM 57.0 °F - 55.0 °F 93% 30.18 in 6.0 mi Calm Calm - N/A   Clear